logo tempoitalia

Diretta Meteo Kirksville, Stati Uniti (USA)lunedì 31 agosto ore 00:55

Mappa
Sereno 24 °C Sereno 24 Ore: T.min 23 T.max 34
Ponente Sud Km/h 13 Punto di rugiada: 20 °C Umidità: 78% Visibilità: 10 Km
Il sole sorge alle: 06:37 Il sole tramonta alle: 19:43
31 Agosto 2026 00:55 tempo osservato: Sereno Sereno 24 78 1013 vento: Nord S 13
30 Agosto 2026 23:55 tempo osservato: Sereno Sereno 25 73 1013 vento: Nord S/SE 14.8
30 Agosto 2026 22:55 tempo osservato: Sereno Sereno 25 73 1014 vento: Nord S/SE 16.7
30 Agosto 2026 21:55 tempo osservato: Sereno Sereno 26 69 1014 vento: Nord S/SE 18.5
30 Agosto 2026 20:55 tempo osservato: Sereno Sereno 25 69 1013 vento: Nord SE 11.1
30 Agosto 2026 19:55 tempo osservato: Sereno Sereno 26 69 1012 vento: Nord S/SE 9.3
30 Agosto 2026 18:55 tempo osservato: Sereno Sereno 31 52 1012 vento: Nord S 14.8
30 Agosto 2026 17:55 tempo osservato: Sereno Sereno 33 43 1012 vento: Nord S 24
30 Agosto 2026 16:55 tempo osservato: Sereno Sereno 34 41 1012 vento: Nord S 27.8
30 Agosto 2026 15:55 tempo osservato: Sereno Sereno 34 43 1013 vento: Nord S 24
30 Agosto 2026 14:55 tempo osservato: Sereno Sereno 34 43 1014 vento: Nord S/SO 24
30 Agosto 2026 13:55 tempo osservato: Sereno Sereno 33 46 1014 vento: Nord S 25.9
30 Agosto 2026 12:55 tempo osservato: Sereno Sereno 28 58 1014 vento: Nord S/SO 11.1
30 Agosto 2026 11:55 tempo osservato: Sereno Sereno 29 54 1015 vento: Nord S/SO 16.7
30 Agosto 2026 10:55 tempo osservato: Sereno Sereno 28 54 1015 vento: Nord SO 18.5
30 Agosto 2026 09:55 tempo osservato: Sereno Sereno 26 57 1016 vento: Nord O 14.8
30 Agosto 2026 08:55 tempo osservato: Sereno Sereno 25 57 1014 vento: Nord S/SO 22.2
30 Agosto 2026 07:55 tempo osservato: Sereno Sereno 24 60 1014 vento: Nord S/SO 16.7
30 Agosto 2026 06:55 tempo osservato: Sereno Sereno 23 56 1014 vento: Nord S/SO 14.8
30 Agosto 2026 05:55 tempo osservato: Sereno Sereno 24 53 1014 vento: Nord S/SO 16.7
30 Agosto 2026 04:55 tempo osservato: Sereno Sereno 23 56 1014 vento: Nord S/SO 14.8
30 Agosto 2026 03:55 tempo osservato: Sereno Sereno 23 60 1014 vento: Nord S 16.7
30 Agosto 2026 02:55 tempo osservato: Sereno Sereno 23 64 1014 vento: Nord S 16.7
30 Agosto 2026 01:55 tempo osservato: Sereno Sereno 23 64 1014 vento: Nord S 14.8